Flag for Norway Weather past 2 weeks in Jan Mayen, Jan Mayen, Norway

Now
40 °F

Light rain. Low clouds.


Feels Like: 33 °F
Forecast: 40 / 43 °F
Wind: 13 mph from North

Location: Jan Mayen

Current Time: Jul 29, 2015 at 8:53:00 PM

Latest Report: Jul 29, 2015 at 8:00 PM


Visibility: 6 mi

Pressure: 29.83 "Hg

Humidity: 89%

Dew point: 37 °F

Location of Jan MayenLocation

Historic Weather in Jan Mayen — Graph

°F

Jan Mayen temperature yesterday

Maximum temperature yesterday: 40 °F (at 7:00 PM)
Minimum temperature yesterday: 37 °F (at 3:00 AM)
Average temperature yesterday: 39 °F

Past Weeks' High & Low Weather Summary

 TemperatureHumidityPressure
High48 °F (Jul 19, 11:00 AM)94% (Jul 17, 11:00 AM)30.11 "Hg (Jul 17, 11:00 AM)
Low37 °F (Jul 25, 4:00 AM)69% (Jul 19, 7:00 AM)29.60 "Hg (Jul 18, 9:00 PM)
Average42 °F87%29.95 "Hg
* Reported Jul 14 8:00 PM — Jul 29 7:00 PM, Jan Mayen, Weather by CustomWeather, © 2015

Note: Actual official high and low records may vary slightly from our data, if they occured in-between our weather recording intervals... More about our weather records

Advertising

Jan Mayen weather history for previous 24 hours

 ConditionsComfort  
Time TempWeatherWind HumidityBarometerVisibility
7:00 PM
Wed, Jul 29
40 °FQuite cool.14 mph91%29.83 "HgN/A
6:00 PM40 °FQuite cool.12 mph89%29.83 "HgN/A
5:00 PM40 °FLight rain. Overcast.12 mph90%29.82 "Hg7 mi
4:00 PM40 °FQuite cool.12 mph89%29.82 "HgN/A
3:00 PM40 °FQuite cool.12 mph89%29.82 "HgN/A
2:00 PM40 °FRain. Overcast.12 mph89%29.82 "Hg6 mi
1:00 PM40 °FQuite cool.12 mph89%29.81 "HgN/A
12:00 PM40 °FChilly.13 mph89%29.80 "HgN/A
11:00 AM40 °FRain. Overcast.14 mph88%29.80 "Hg6 mi
10:00 AM40 °FQuite cool.14 mph89%29.80 "HgN/A
9:00 AM41 °FQuite cool.15 mph89%29.79 "HgN/A
8:00 AM41 °FRain. Overcast.14 mph90%29.79 "Hg6 mi
7:00 AM41 °FQuite cool.14 mph90%29.78 "HgN/A
6:00 AM41 °FQuite cool.12 mph89%29.78 "HgN/A
5:00 AM41 °FQuite cool.15 mph88%29.78 "HgN/A
4:00 AM41 °FQuite cool.14 mph89%29.77 "HgN/A
3:00 AM41 °FQuite cool.14 mph88%29.77 "HgN/A
2:00 AM41 °FRain. Overcast.13 mph88%29.77 "Hg6 mi
1:00 AM40 °FQuite cool.10 mph88%29.77 "HgN/A
12:00 AM40 °FQuite cool.12 mph88%29.77 "HgN/A
10:00 PM
Tue, Jul 28
40 °FQuite cool.7 mph89%29.78 "HgN/A
9:00 PM40 °FQuite cool.6 mph89%29.78 "HgN/A
8:00 PM40 °FLight rain. Low clouds.7 mph89%29.79 "Hg7 mi
Weather by CustomWeather, © 2015

See weather overviewHow to use our weather pages